TimeMST,TemperatureF,Dew PointF,Humidity,Sea Level PressureIn,VisibilityMPH,Wind Direction,Wind SpeedMPH,Gust SpeedMPH,PrecipitationIn,Events,Conditions,WindDirDegrees,DateUTC
12:53 AM,25.0,14.0,63,30.40,10.0,North,6.9,-,N/A,,Clear,360,2012-12-04 07:53:00
1:53 AM,25.0,14.0,63,30.39,10.0,NNE,10.4,-,N/A,,Clear,20,2012-12-04 08:53:00
2:53 AM,26.1,14.0,60,30.40,10.0,NNE,6.9,-,N/A,,Clear,20,2012-12-04 09:53:00
3:53 AM,27.0,15.1,61,30.40,10.0,NNE,5.8,-,N/A,,Clear,20,2012-12-04 10:53:00
4:53 AM,30.9,16.0,54,30.40,10.0,NE,5.8,-,N/A,,Mostly Cloudy,50,2012-12-04 11:53:00
5:53 AM,30.0,18.0,61,30.46,10.0,Calm,Calm,-,N/A,,Overcast,0,2012-12-04 12:53:00
6:53 AM,30.9,16.0,54,30.48,10.0,Calm,Calm,-,N/A,,Partly Cloudy,0,2012-12-04 13:53:00
7:53 AM,26.1,16.0,66,30.53,10.0,Calm,Calm,-,N/A,,Clear,0,2012-12-04 14:53:00
8:53 AM,35.1,17.1,48,30.50,10.0,Calm,Calm,-,N/A,,Clear,0,2012-12-04 15:53:00
9:53 AM,37.9,19.9,48,30.50,10.0,Calm,Calm,-,N/A,,Clear,0,2012-12-04 16:53:00
10:53 AM,39.9,21.0,47,30.52,10.0,SSW,4.6,-,N/A,,Clear,200,2012-12-04 17:53:00
11:53 AM,44.1,18.0,35,30.50,10.0,ESE,3.5,-,N/A,,Mostly Cloudy,120,2012-12-04 18:53:00
12:53 PM,45.0,15.1,30,30.48,10.0,SSE,4.6,-,N/A,,Partly Cloudy,150,2012-12-04 19:53:00
1:53 PM,46.0,16.0,30,30.46,10.0,Calm,Calm,-,N/A,,Scattered Clouds,0,2012-12-04 20:53:00
2:53 PM,46.9,16.0,29,30.43,10.0,Calm,Calm,-,N/A,,Clear,0,2012-12-04 21:53:00
3:53 PM,45.0,17.1,33,30.45,10.0,Calm,Calm,-,N/A,,Partly Cloudy,0,2012-12-04 22:53:00
4:53 PM,43.0,19.0,38,30.44,10.0,Calm,Calm,-,N/A,,Overcast,0,2012-12-04 23:53:00
5:53 PM,39.0,21.0,49,30.47,10.0,Calm,Calm,-,N/A,,Overcast,0,2012-12-05 00:53:00
6:53 PM,39.9,21.9,49,30.46,10.0,NNE,4.6,-,N/A,,Overcast,30,2012-12-05 01:53:00
7:53 PM,37.0,21.0,52,30.50,10.0,North,6.9,-,N/A,,Mostly Cloudy,10,2012-12-05 02:53:00
8:53 PM,36.0,21.0,55,30.44,10.0,North,4.6,-,N/A,,Clear,10,2012-12-05 03:53:00
9:53 PM,34.0,19.9,56,30.42,10.0,NNE,4.6,-,N/A,,Clear,20,2012-12-05 04:53:00
10:53 PM,33.1,19.9,59,30.41,10.0,North,5.8,-,N/A,,Clear,10,2012-12-05 05:53:00
11:53 PM,30.9,19.0,61,30.40,10.0,NE,5.8,-,N/A,,Clear,50,2012-12-05 06:53:00